Regional Weather Roundup
Issued by NWS

Home | Current Version | Previous Version | Graphics & Text | Print | Product List | Glossary On
Versions: 1 2 3 4 5 6 7 8 9 10 11 12 13 14 15 16 17 18 19 20 21 22 23 24 25 26 27
000
ASUS45 KBOU 170910
RWRCO

WEATHER ROUNDUP FOR COLORADO
NATIONAL WEATHER SERVICE DENVER/BOULDER CO
200 AM MST SUN DEC 17 2017

NOTE: "FAIR" INDICATES FEW OR NO CLOUDS BELOW 12000 FEET WITH NO
SIGNIFICANT WEATHER AND/OR OBSTRUCTIONS TO VISIBILITY.

COZ001>005-013-030-031-171000-
...NORTHWEST COLORADO...

CITY           SKY/WX    TMP DP  RH WIND       PRES   REMARKS
CRAIG          FAIR       6   3  87 NW3       29.95R
HAYDEN         FAIR      17  11  77 CALM      29.94R
MEEKER         FAIR      14   7  73 CALM      29.92R
RABBIT EARS PA FAIR      18   1  49 W12G20    29.87R WCI   5
STEAMBOAT SPGS FAIR      16  12  86 CALM      29.91R
WALDEN         FAIR       5   0  78 SE3       29.89R
$$

COZ006>008-011-171000-
...WEST CENTRAL VALLEYS...

CITY           SKY/WX    TMP DP  RH WIND       PRES   REMARKS
GRAND JUNCTION FAIR      19   5  54 E3        29.94R
MONTROSE       FAIR      20   8  60 SE7       29.95R WCI  11
EAGLE          FAIR      10   5  80 CALM      29.96R
RIFLE          FAIR      17   7  64 CALM      29.93R
DELTA          FAIR      24   4  41 CALM      29.95R
NUCLA          FAIR      27   0  31 E9        29.95R WCI  17
$$

COZ017>023-064>068-171000-
...SOUTHWEST COLORADO...

CITY           SKY/WX    TMP DP  RH WIND       PRES   REMARKS
DURANGO        FAIR      27   9  46 CALM      29.91R
CORTEZ         FAIR      25   5  42 E7        29.93R WCI  17
PAGOSA SPRINGS CLOUDY    21   6  52 CALM      29.92R
TELLURIDE      FAIR      27  -2  28 SE6       29.93S WCI  21
WOLF CREEK PAS FAIR      18   0  45 SW10      29.98S WCI   6
$$

COZ009-010-012-014-032>034-037-058>063-171000-
...CENTRAL COLORADO...

CITY           SKY/WX    TMP DP  RH WIND       PRES   REMARKS
ASPEN          FAIR      18   7  62 S6        29.88R WCI  10
BUENA VISTA    FAIR      15   8  73 W3        29.88S
COPPER MTN     NOT AVBL
BERTHOUD PASS  FAIR      14   3  62 NW15G21   29.89S WCI  -1
COTTONWOOD PAS FAIR      28  10  47 CALM      29.88S
GUNNISON       FAIR      14   8  77 CALM      29.93R
KREMMLING      FAIR       9   3  78 CALM      29.94R
LEADVILLE      FAIR      17   3  54 E6        29.88R WCI   9
MONARCH PASS   FAIR      21  -4  33 W22       30.01R WCI   5
SALIDA         FAIR      24   9  54 CALM      29.96S
SUNLIGHT       FAIR      18  -6  35 SW8       29.94R WCI   7
WILKERSON PASS FAIR      23   1  39 W10G17    29.90R WCI  12
$$

COZ069>075-171000-
...SAN LUIS VALLEY/SANGRE DE CRISTO MOUNTAINS...

CITY           SKY/WX    TMP DP  RH WIND       PRES   REMARKS
ALAMOSA        FAIR      12   7  80 E7        29.88R WCI   1
DEL NORTE      FAIR      20   7  56 W10       29.89R WCI   9
LA VETA PASS   FAIR      23   3  42 SW29G39     N/A  WCI   6
SAGUACHE       FAIR      18   9  68 NW10      29.89R WCI   6
$$

COZ035-036-038>040-171000-
...NORTHERN COLORADO FRONT RANGE...

CITY           SKY/WX    TMP DP  RH WIND       PRES   REMARKS
DENVER INTL AP FOG       29  27  92 CALM      29.93S VSB 1/2
DMNS CITY PARK NOT AVBL
AURORA         CLOUDY    28  27  99 E3        29.93S
FRONT RANGE AP FOG       30  29  96 CALM      29.93S VSB 1
ERIE MUNI ARPT CLOUDY    31  29  90 CALM      29.99F
BOULDER MUN AP CLOUDY    32  30  93 CALM      29.93S
CENTENNIAL     CLOUDY    28  26  92 NE3       29.92S
BROOMFIELD     CLOUDY    30  28  93 CALM      29.93S
FORT COLLINS   CLOUDY    30  28  92 NE3       29.94S FOG
LONGMONT       CLOUDY    33  29  86 CALM      29.95F
$$

COZ041-046-047-076>085-087-088-171000-
...PIKES PEAK/PALMER DIVIDE AND SOUTHERN FOOTHILLS...

CITY           SKY/WX    TMP DP  RH WIND       PRES   REMARKS
COLO. SPRINGS  FAIR      23  17  78 N7        29.89R WCI  15
A. F. ACADEMY  FAIR      26  20  80 N8        29.88R WCI  17
SCHRIEVER AFB  FAIR      23  21  93 NE10      29.89S WCI  12
CHEYENNE MTN   FAIR      27  19  73 CALM      29.82R
ELLICOTT       CLOUDY   N/A N/A N/A NE9       29.88R
FALCON         FAIR      19  18  94 N5        29.89R WCI  12
FORT CARSON    FAIR      30  18  62 SE5       29.88R WCI  25
LIMON          CLOUDY    28  25  88 N7        29.92R WCI  21
MONUMENT HILL  CLOUDY    23  21  93 N3        29.90R FOG
CANON CITY     FAIR      28  18  64 NE5       29.89R WCI  23
WALSENBURG     FAIR      16  12  86 W5        29.90R WCI   9
TRINIDAD       FAIR      24  17  74 CALM      29.91R
$$

COZ042>045-048>051-090-091-171000-
...NORTHEAST COLORADO...

CITY           SKY/WX    TMP DP  RH WIND       PRES   REMARKS
GREELEY ARPT   CLOUDY    31  29  92 NE5       29.96R FOG     WCI  26
AKRON          FOG       30  28  92 NE9       29.95R VSB 1   WCI  22
BURLINGTON     CLOUDY    31  28  89 NE13      29.92R WCI  21
WRAY           CLOUDY    34  32  93 NE12      29.97R WCI  25
YUMA           CLOUDY    30  30 100 NE9       29.96R FOG     WCI  22
STERLING       CLOUDY    32  32 100 NE6       29.96R FOG     WCI  26
HOLYOKE        CLOUDY    34  32  93 NE7       29.99R WCI  28
FORT MORGAN    CLOUDY    31  29  94 NE7       29.96S FOG     WCI  24
$$

COZ086-089-092>099-171000-
...SOUTHEAST COLORADO...

CITY           SKY/WX    TMP DP  RH WIND       PRES   REMARKS
PUEBLO         FAIR      24  15  68 E5        29.93R WCI  18
LA JUNTA       CLOUDY    32  27  81 N6        29.93R WCI  26
LAMAR          CLOUDY    33  26  75 NE13      29.91R WCI  24
SPRINGFIELD      N/A     27  25  92 N21G30    29.86R WCI  13
$$




USA.gov is the U.S. government's official web portal to all federal, state and local government web resources and services.